�������l�o���
Date,Time,MP-1(��Sv/h),MP-2(��Sv/h),MP-3(��Sv/h),MP-4(��Sv/h),MP-5(��Sv/h),MP-6(��Sv/h),MP-7(��Sv/h),MP-8(��Sv/h),����,����(m/s),���J
2024/06/25,00:00,0.492,0.757,0.483,0.937,0.686,0.313,0.547,0.508,��쓌,2.5,��
2024/06/25,00:10,0.492,0.757,0.483,0.938,0.688,0.314,0.546,0.508,��쓌,2.3,��
2024/06/25,00:20,0.491,0.757,0.482,0.938,0.686,0.314,0.547,0.507,�쓌,2.6,��
2024/06/25,00:30,0.494,0.755,0.483,0.938,0.686,0.313,0.546,0.508,��쓌,2.0,��
2024/06/25,00:40,0.492,0.756,0.483,0.940,0.684,0.314,0.546,0.508,�쓌,2.0,��
2024/06/25,00:50,0.491,0.757,0.480,0.937,0.687,0.313,0.546,0.507,�쓌,2.5,��
2024/06/25,01:00,0.492,0.756,0.483,0.938,0.686,0.314,0.546,0.507,��쓌,2.9,��
2024/06/25,01:10,0.493,0.755,0.481,0.937,0.684,0.313,0.546,0.508,�쓌,3.2,��
2024/06/25,01:20,0.492,0.758,0.483,0.940,0.686,0.315,0.547,0.508,��쓌,3.4,��
2024/06/25,01:30,0.492,0.756,0.483,0.936,0.687,0.314,0.546,0.506,��쓌,1.2,��
2024/06/25,01:40,0.493,0.756,0.483,0.940,0.685,0.313,0.547,0.507,�쐼,0.6,��
2024/06/25,01:50,0.493,0.757,0.482,0.938,0.685,0.312,0.549,0.508,��,1.7,��
2024/06/25,02:00,0.492,0.758,0.483,0.939,0.685,0.314,0.546,0.508,��,2.3,��
2024/06/25,02:10,0.493,0.756,0.484,0.940,0.685,0.315,0.548,0.508,��,3.0,��
2024/06/25,02:20,0.495,0.756,0.482,0.938,0.687,0.315,0.547,0.507,��,3.6,��
2024/06/25,02:30,0.494,0.757,0.482,0.939,0.686,0.315,0.548,0.509,��,5.2,��
2024/06/25,02:40,0.493,0.757,0.483,0.939,0.688,0.315,0.548,0.506,��,7.0,��
2024/06/25,02:50,0.493,0.758,0.483,0.940,0.686,0.316,0.548,0.509,��,6.7,��
2024/06/25,03:00,0.494,0.758,0.484,0.937,0.686,0.315,0.547,0.509,��,6.8,��
2024/06/25,03:10,0.492,0.758,0.484,0.940,0.686,0.314,0.550,0.507,��,6.4,��
2024/06/25,03:20,0.494,0.758,0.482,0.940,0.686,0.314,0.548,0.507,��,7.1,��
2024/06/25,03:30,0.495,0.756,0.484,0.941,0.687,0.314,0.549,0.508,��,5.9,��
2024/06/25,03:40,0.492,0.756,0.485,0.939,0.688,0.313,0.547,0.507,��,6.3,��
2024/06/25,03:50,0.494,0.759,0.483,0.939,0.687,0.315,0.548,0.507,��,6.7,��
2024/06/25,04:00,0.493,0.758,0.482,0.940,0.686,0.313,0.548,0.508,��,6.2,��
2024/06/25,04:10,0.493,0.758,0.483,0.939,0.686,0.314,0.546,0.509,��,6.1,��
2024/06/25,04:20,0.493,0.757,0.484,0.939,0.685,0.313,0.548,0.509,��,5.8,��
2024/06/25,04:30,0.493,0.757,0.484,0.940,0.686,0.314,0.548,0.507,��,5.8,��
2024/06/25,04:40,0.493,0.758,0.483,0.942,0.686,0.312,0.548,0.509,��,5.9,��
2024/06/25,04:50,0.494,0.758,0.482,0.940,0.685,0.314,0.549,0.508,��,5.7,��
2024/06/25,05:00,0.493,0.758,0.484,0.940,0.686,0.313,0.548,0.507,��,6.1,��
2024/06/25,05:10,0.493,0.758,0.483,0.939,0.687,0.314,0.548,0.508,��,7.6,��
2024/06/25,05:20,0.493,0.758,0.483,0.941,0.685,0.315,0.548,0.508,��,7.0,��
2024/06/25,05:30,0.495,0.758,0.484,0.940,0.686,0.315,0.550,0.508,��,6.0,��
2024/06/25,05:40,0.492,0.756,0.484,0.940,0.687,0.313,0.549,0.508,��,7.1,��
2024/06/25,05:50,0.493,0.757,0.481,0.941,0.687,0.314,0.548,0.508,��,6.8,��
2024/06/25,06:00,0.494,0.756,0.484,0.941,0.685,0.314,0.549,0.508,��,8.2,��
2024/06/25,06:10,0.493,0.758,0.482,0.940,0.687,0.312,0.549,0.508,��,7.9,��
2024/06/25,06:20,0.494,0.759,0.483,0.941,0.686,0.313,0.549,0.507,��,9.1,��
2024/06/25,06:30,0.492,0.759,0.482,0.939,0.685,0.314,0.550,0.507,��,8.4,��
2024/06/25,06:40,0.494,0.760,0.483,0.941,0.686,0.313,0.548,0.508,��,7.8,��
2024/06/25,06:50,0.492,0.758,0.483,0.940,0.685,0.312,0.548,0.508,��,8.2,��
2024/06/25,07:00,0.493,0.759,0.482,0.939,0.687,0.313,0.549,0.508,��,7.4,��
2024/06/25,07:10,0.493,0.758,0.482,0.939,0.686,0.313,0.548,0.509,��,7.8,��
2024/06/25,07:20,0.493,0.759,0.483,0.940,0.685,0.313,0.549,0.507,��,7.4,��
2024/06/25,07:30,0.493,0.756,0.483,0.939,0.685,0.313,0.548,0.507,��,6.7,��
2024/06/25,07:40,0.493,0.756,0.481,0.938,0.682,0.312,0.546,0.506,��,8.3,��
2024/06/25,07:50,0.493,0.756,0.482,0.942,0.684,0.312,0.547,0.507,��,6.4,��
2024/06/25,08:00,0.494,0.757,0.482,0.940,0.686,0.313,0.547,0.505,��,5.9,��
2024/06/25,08:10,0.492,0.757,0.482,0.937,0.687,0.313,0.548,0.507,��,6.7,��
2024/06/25,08:20,0.493,0.754,0.483,0.940,0.687,0.313,0.548,0.507,��,8.0,��
2024/06/25,08:30,0.492,0.757,0.484,0.939,0.687,0.313,0.547,0.507,��,6.8,��
2024/06/25,08:40,0.493,0.759,0.482,0.938,0.686,0.311,0.547,0.506,��,7.1,��
2024/06/25,08:50,0.494,0.757,0.482,0.938,0.685,0.313,0.547,0.506,��쐼,7.7,��
2024/06/25,09:00,0.494,0.759,0.482,0.941,0.687,0.314,0.546,0.507,��쐼,6.2,��
2024/06/25,09:10,0.496,0.760,0.484,0.942,0.686,0.314,0.547,0.506,��쐼,6.7,��
2024/06/25,09:20,0.495,0.759,0.483,0.940,0.688,0.313,0.549,0.506,��쐼,6.8,��
2024/06/25,09:30,0.496,0.759,0.484,0.941,0.687,0.315,0.549,0.505,��,5.1,��
2024/06/25,09:40,0.495,0.758,0.484,0.941,0.689,0.315,0.548,0.505,��,4.9,��
2024/06/25,09:50,0.496,0.757,0.484,0.943,0.686,0.315,0.546,0.506,��,5.9,��
2024/06/25,10:00,0.496,0.758,0.483,0.943,0.688,0.314,0.547,0.505,��쐼,4.6,��
2024/06/25,10:10,0.496,0.758,0.483,0.939,0.687,0.315,0.548,0.508,��쐼,4.8,��
2024/06/25,10:20,0.496,0.759,0.485,0.943,0.688,0.315,0.548,0.507,��쐼,4.6,��
2024/06/25,10:30,0.496,0.758,0.484,0.942,0.688,0.314,0.548,0.506,��쐼,2.8,��
2024/06/25,10:40,0.495,0.760,0.485,0.941,0.688,0.315,0.549,0.506,��,2.0,��
2024/06/25,10:50,0.495,0.758,0.486,0.942,0.686,0.314,0.548,0.506,��,3.0,��
2024/06/25,11:00,0.496,0.760,0.483,0.943,0.687,0.314,0.548,0.507,��쓌,2.6,��
2024/06/25,11:10,0.496,0.759,0.483,0.940,0.688,0.313,0.548,0.505,��쓌,3.1,��
2024/06/25,11:20,0.496,0.760,0.483,0.940,0.688,0.314,0.547,0.506,��쓌,4.9,��
2024/06/25,11:30,0.498,0.759,0.482,0.942,0.687,0.312,0.546,0.508,�쓌,4.5,��
2024/06/25,11:40,0.498,0.761,0.483,0.943,0.689,0.314,0.546,0.508,�쓌,4.6,��
2024/06/25,11:50,0.496,0.761,0.486,0.943,0.688,0.314,0.546,0.509,�쓌,4.1,��
2024/06/25,12:00,0.496,0.762,0.484,0.944,0.689,0.313,0.547,0.509,�쓌,5.3,��
2024/06/25,12:10,0.497,0.763,0.483,0.945,0.688,0.315,0.547,0.507,�쓌,4.1,��
2024/06/25,12:20,0.496,0.759,0.484,0.944,0.688,0.314,0.548,0.507,�쓌,3.8,��
2024/06/25,12:30,0.497,0.762,0.485,0.945,0.688,0.313,0.547,0.506,�쓌,4.1,��
2024/06/25,12:40,0.497,0.762,0.484,0.944,0.689,0.312,0.547,0.508,�쓌,5.2,��
2024/06/25,12:50,0.498,0.762,0.484,0.944,0.689,0.314,0.546,0.508,��쓌,6.1,��
2024/06/25,13:00,0.497,0.761,0.484,0.944,0.690,0.314,0.547,0.507,��쓌,6.2,��
2024/06/25,13:10,0.497,0.761,0.485,0.944,0.690,0.314,0.549,0.507,��쓌,5.0,��
2024/06/25,13:20,0.496,0.762,0.483,0.946,0.691,0.313,0.547,0.507,��쓌,4.2,��
2024/06/25,13:30,0.496,0.759,0.484,0.944,0.691,0.314,0.548,0.508,��쓌,3.2,��
2024/06/25,13:40,0.496,0.761,0.484,0.944,0.690,0.314,0.548,0.507,�쓌,2.0,��
2024/06/25,13:50,0.497,0.760,0.484,0.943,0.690,0.315,0.547,0.506,�쓌,2.6,��
2024/06/25,14:00,0.497,0.761,0.483,0.946,0.692,0.313,0.549,0.508,�쓌,3.1,��
2024/06/25,14:10,0.496,0.762,0.484,0.945,0.691,0.313,0.547,0.507,�k��,2.3,�L
2024/06/25,14:20,0.498,0.762,0.484,0.945,0.690,0.313,0.547,0.506,�k�k��,2.0,��
2024/06/25,14:30,0.499,0.761,0.484,0.943,0.690,0.313,0.548,0.506,�k,6.7,��
2024/06/25,14:40,0.497,0.763,0.482,0.945,0.693,0.313,0.548,0.508,�k�k��,6.8,��
2024/06/25,14:50,0.497,0.763,0.485,0.943,0.691,0.313,0.548,0.507,�k,3.8,��
2024/06/25,15:00,0.497,0.762,0.485,0.945,0.692,0.313,0.547,0.505,�k�k��,1.5,��
2024/06/25,15:10,0.498,0.763,0.484,0.944,0.693,0.314,0.546,0.507,-,CALM,��
2024/06/25,15:20,0.496,0.763,0.484,0.944,0.692,0.313,0.547,0.506,���k��,0.6,��
2024/06/25,15:30,0.498,0.763,0.485,0.945,0.693,0.313,0.545,0.505,���k��,0.6,��
2024/06/25,15:40,0.498,0.764,0.487,0.947,0.695,0.314,0.548,0.507,-,CALM,��
2024/06/25,15:50,0.499,0.766,0.485,0.946,0.695,0.313,0.547,0.509,�쓌,1.5,��
2024/06/25,16:00,0.497,0.763,0.486,0.947,0.695,0.314,0.548,0.509,��,1.5,��
2024/06/25,16:10,0.499,0.763,0.486,0.946,0.693,0.314,0.547,0.508,�쓌,1.2,��
2024/06/25,16:20,0.499,0.763,0.486,0.945,0.694,0.316,0.546,0.507,�쓌,2.0,��
2024/06/25,16:30,0.498,0.765,0.486,0.945,0.693,0.314,0.546,0.507,��,1.4,��
2024/06/25,16:40,0.499,0.764,0.486,0.949,0.694,0.314,0.548,0.508,�쓌,0.6,��
2024/06/25,16:50,0.499,0.765,0.486,0.946,0.693,0.314,0.548,0.507,��,0.6,��
2024/06/25,17:00,0.498,0.764,0.485,0.947,0.693,0.314,0.548,0.507,�쓌,0.9,��
2024/06/25,17:10,0.497,0.763,0.485,0.948,0.693,0.315,0.547,0.508,-,CALM,��
2024/06/25,17:20,0.497,0.761,0.486,0.950,0.694,0.314,0.546,0.507,�k�k��,1.2,��
2024/06/25,17:30,0.497,0.764,0.484,0.947,0.694,0.314,0.547,0.506,�k,2.6,��
2024/06/25,17:40,0.498,0.766,0.484,0.949,0.694,0.314,0.546,0.506,�k,2.6,��
2024/06/25,17:50,0.498,0.764,0.484,0.949,0.695,0.315,0.547,0.509,�k,3.7,��
2024/06/25,18:00,0.498,0.763,0.485,0.947,0.694,0.315,0.547,0.509,�k�k��,3.5,��
2024/06/25,18:10,0.499,0.765,0.484,0.947,0.696,0.315,0.547,0.510,�k�k��,3.5,��
2024/06/25,18:20,0.499,0.766,0.484,0.947,0.696,0.315,0.549,0.510,�k�k��,3.3,��
2024/06/25,18:30,0.499,0.765,0.487,0.948,0.693,0.315,0.548,0.508,�k��,2.0,��
2024/06/25,18:40,0.498,0.767,0.485,0.947,0.695,0.316,0.548,0.510,�k�k��,2.5,��
2024/06/25,18:50,0.501,0.766,0.485,0.946,0.695,0.315,0.549,0.510,�k�k��,2.6,��
2024/06/25,19:00,0.499,0.769,0.485,0.948,0.695,0.314,0.549,0.510,���쓌,1.4,��
2024/06/25,19:10,0.499,0.767,0.487,0.950,0.695,0.314,0.548,0.508,��,1.9,��
2024/06/25,19:20,0.499,0.767,0.486,0.949,0.698,0.315,0.550,0.510,�쓌,0.8,��
2024/06/25,19:30,0.499,0.769,0.485,0.948,0.694,0.316,0.548,0.509,-,CALM,��
2024/06/25,19:40,0.499,0.769,0.485,0.950,0.695,0.315,0.548,0.509,���k��,0.6,��
2024/06/25,19:50,0.499,0.767,0.485,0.949,0.694,0.315,0.548,0.510,���k��,1.5,��
2024/06/25,20:00,0.499,0.768,0.486,0.949,0.696,0.317,0.550,0.509,���k��,1.4,��
2024/06/25,20:10,0.499,0.768,0.485,0.947,0.696,0.317,0.549,0.509,�k�k��,0.9,��
2024/06/25,20:20,0.499,0.766,0.487,0.949,0.696,0.315,0.548,0.509,�k,0.6,��
2024/06/25,20:30,0.499,0.767,0.485,0.950,0.695,0.316,0.548,0.509,��쐼,0.8,��
2024/06/25,20:40,0.499,0.766,0.486,0.949,0.694,0.316,0.550,0.510,-,CALM,��
2024/06/25,20:50,0.498,0.767,0.487,0.951,0.696,0.317,0.548,0.511,�k,1.7,��
2024/06/25,21:00,0.498,0.767,0.487,0.950,0.695,0.315,0.548,0.510,�k�k��,1.9,��
2024/06/25,21:10,0.498,0.766,0.487,0.949,0.695,0.316,0.549,0.509,�k��,1.5,��
2024/06/25,21:20,0.499,0.768,0.487,0.948,0.697,0.314,0.549,0.511,���k��,4.8,��
2024/06/25,21:30,0.498,0.766,0.487,0.950,0.695,0.315,0.548,0.510,���k��,4.4,��
2024/06/25,21:40,0.498,0.764,0.486,0.951,0.694,0.315,0.550,0.510,���k��,3.9,��
2024/06/25,21:50,0.499,0.765,0.487,0.949,0.696,0.315,0.550,0.509,�k��,3.5,��
2024/06/25,22:00,0.498,0.768,0.487,0.950,0.693,0.315,0.550,0.509,���k��,2.6,��
2024/06/25,22:10,0.499,0.766,0.487,0.949,0.696,0.317,0.549,0.509,�k��,2.0,��
2024/06/25,22:20,0.498,0.766,0.488,0.948,0.694,0.316,0.549,0.510,���k��,4.1,��
2024/06/25,22:30,0.499,0.767,0.487,0.949,0.695,0.316,0.548,0.509,���k��,3.4,��
2024/06/25,22:40,0.498,0.766,0.487,0.949,0.694,0.316,0.550,0.510,�k��,1.5,��
2024/06/25,22:50,0.498,0.766,0.486,0.950,0.696,0.315,0.549,0.509,�k�k��,1.2,��
2024/06/25,23:00,0.497,0.766,0.486,0.949,0.695,0.316,0.549,0.508,�k�k��,1.4,��
2024/06/25,23:10,0.498,0.766,0.485,0.949,0.694,0.316,0.549,0.509,�k��,1.4,��
2024/06/25,23:20,0.497,0.767,0.487,0.951,0.694,0.315,0.547,0.508,�k�k��,1.1,��
2024/06/25,23:30,0.498,0.767,0.486,0.949,0.695,0.316,0.550,0.510,�k��,3.2,��
2024/06/25,23:40,0.499,0.768,0.486,0.951,0.694,0.315,0.550,0.509,�k��,3.8,��
2024/06/25,23:50,0.497,0.765,0.486,0.951,0.695,0.317,0.550,0.510,�k��,3.9,��
